CW1020 Weather Reports


time (UTC)temp
F
wind
direction
speed
knots
gust
knots
rain 1hr
in
rain 24hr
in
rain mn
in
humidity
%
barometer
mb
20260502190502 77 109 9.6 14.8 0.00 0.00 0.00 21 1016.7
20260502190002 77 87 9.6 15.6 0.00 0.00 0.00 20 1016.8
20260502185503 78 100 8.7 15.6 0.00 0.00 0.00 20 1017.0
20260502185004 77 106 9.6 14.8 0.00 0.00 0.00 21 1016.9
20260502184003 77 97 9.6 16.5 0.00 0.00 0.00 21 1016.9
20260502183502 77 87 8.7 13.0 0.00 0.00 0.00 22 1016.9
20260502183003 77 76 8.7 15.6 0.00 0.00 0.00 21 1017.1
20260502182502 77 108 9.6 13.0 0.00 0.00 0.00 22 1017.0
20260502182002 76 117 9.6 17.4 0.00 0.00 0.00 22 1016.9
20260502181503 76 83 10.4 14.8 0.00 0.00 0.00 22 1017.1
20260502181002 76 104 11.3 18.2 0.00 0.00 0.00 22 1017.0
20260502180503 76 108 10.4 16.5 0.00 0.00 0.00 22 1017.0
20260502170502 74 107 8.7 13.9 0.00 0.00 0.00 27 1017.4
20260502164002 72 86 8.7 14.8 0.00 0.00 0.00 30 1017.0
20260502163503 72 94 8.7 15.6 0.00 0.00 0.00 31 1017.0
20260502163002 72 86 9.6 12.2 0.00 0.00 0.00 32 1017.0
20260502162502 72 90 8.7 13.9 0.00 0.00 0.00 32 1017.0
20260502162003 72 88 8.7 12.2 0.00 0.00 0.00 33 1017.1
20260502161503 72 89 7.8 13.9 0.00 0.00 0.00 34 1017.1
20260502160504 71 93 8.7 12.2 0.00 0.00 0.00 38 1017.1
20260502152002 64 62 2.6 4.3 0.00 0.00 0.00 52 1017.3
20260502151502 62 74 2.6 3.5 0.00 0.00 0.00 55 1017.4
20260502150502 59 78 0.9 5.2 0.00 0.00 0.00 60 1017.2
20260502123503 47 0 0.0 0.0 0.00 0.00 0.00 77 1016.2
20260502122503 47 143 0.9 3.5 0.00 0.00 0.00 77 1016.2
20260502122004 47 147 0.0 2.6 0.00 0.00 0.00 77 1016.1
20260502121503 47 0 0.0 0.0 0.00 0.00 0.00 78 1016.1
20260502121002 47 0 0.0 0.0 0.00 0.00 0.00 78 1016.1
20260502120503 47 0 0.0 0.0 0.00 0.00 0.00 78 1016.1
20260502115503 47 0 0.0 0.0 0.00 0.00 0.00 77 1016.2
20260502115003 47 0 0.0 0.0 0.00 0.00 0.00 77 1016.1
20260502114503 47 0 0.0 0.0 0.00 0.00 0.00 77 1016.1
20260502114002 47 0 0.0 0.0 0.00 0.00 0.00 77 1016.1
20260502113503 47 0 0.9 0.0 0.00 0.00 0.00 77 1016.3
20260502112502 48 137 0.9 0.9 0.00 0.00 0.00 77 1016.1
20260502112003 48 135 0.9 1.7 0.00 0.00 0.00 77 1016.2
20260502111503 48 137 0.9 1.7 0.00 0.00 0.00 77 1016.2
20260502110003 48 154 0.9 0.9 0.00 0.00 0.00 77 1016.4
20260502105003 48 137 0.0 2.6 0.00 0.00 0.00 77 1016.4
20260502104502 48 0 0.9 0.0 0.00 0.00 0.00 77 1016.4
20260502104003 48 135 0.9 6.1 0.00 0.00 0.00 77 1016.5
20260502103503 48 132 0.0 2.6 0.00 0.00 0.00 77 1016.4
20260502103003 48 149 0.0 1.7 0.00 0.00 0.00 77 1016.3
20260502102502 49 155 0.0 1.7 0.00 0.00 0.00 77 1016.3
20260502102002 49 150 0.0 3.5 0.00 0.00 0.00 77 1016.4
20260502101503 49 135 0.0 1.7 0.00 0.00 0.00 76 1016.4
20260502101003 49 0 0.0 0.0 0.00 0.00 0.00 75 1016.4
20260502100502 49 0 0.0 0.0 0.00 0.00 0.00 76 1016.4
20260502091003 51 119 0.9 7.8 0.00 0.00 0.00 73 1016.6
20260502070503 55 0 0.0 0.0 0.00 0.00 0.00 71 1017.1
20260502070006 55 0 0.0 0.0 0.00 0.00 0.00 71 1017.1
20260502065503 55 0 0.0 0.0 0.00 0.00 0.00 71 1017.2
20260502065003 55 0 0.0 0.0 0.00 0.00 0.00 70 1017.2
20260502064505 56 0 0.0 0.0 0.00 0.00 0.00 70 1017.2
20260502063002 56 0 0.0 0.0 0.00 0.00 0.00 69 1017.1
20260502062503 56 172 0.0 1.7 0.00 0.00 0.00 69 1017.2
20260502062003 56 0 0.0 0.0 0.00 0.00 0.00 68 1017.2
20260502061503 56 0 0.0 0.0 0.00 0.00 0.00 69 1017.2
20260502061003 57 0 0.0 0.0 0.00 0.00 0.00 68 1017.2
20260502060503 57 0 0.0 0.0 0.00 0.00 0.00 67 1017.1
20260502060003 58 0 0.0 0.0 0.00 0.00 0.00 66 1017.1
20260502055004 58 0 0.9 0.0 0.00 0.00 0.00 65 1017.2
20260502054504 58 190 0.9 1.7 0.00 0.00 0.00 65 1017.1
20260502054003 59 225 0.9 0.9 0.00 0.00 0.00 64 1017.1
20260502053503 59 205 0.9 1.7 0.00 0.00 0.00 64 1017.1
20260502052004 60 0 0.0 0.0 0.00 0.00 0.00 61 1017.3
20260502051003 61 0 0.0 0.0 0.00 0.00 0.00 60 1017.1
20260502050503 61 172 0.0 1.7 0.00 0.00 0.00 59 1017.1
20260502050003 61 173 0.9 1.7 0.00 0.00 0.00 59 1017.1
20260502045503 62 0 0.9 0.0 0.00 0.00 0.00 59 1017.1
20260502044504 62 160 2.6 1.7 0.00 0.00 0.00 58 1017.1
20260502044003 62 157 2.6 5.2 0.00 0.00 0.00 57 1017.0
20260502043503 63 156 1.7 5.2 0.00 0.00 0.00 57 1016.9
20260502043003 63 156 0.9 3.5 0.00 0.00 0.00 56 1016.9
20260502042503 64 158 0.9 0.9 0.00 0.00 0.00 55 1016.9
20260502041503 64 152 0.0 1.7 0.00 0.00 0.00 54 1016.8
20260502041004 65 0 0.0 0.0 0.00 0.00 0.00 53 1016.7
20260502040503 65 0 0.9 0.0 0.00 0.00 0.00 53 1016.6
20260502040004 65 149 0.9 2.6 0.00 0.00 0.00 53 1016.5
20260502035503 66 224 0.0 3.5 0.00 0.00 0.00 52 1016.5
20260502035003 66 0 0.0 0.0 0.00 0.00 0.00 52 1016.4
20260502034003 66 293 0.9 1.7 0.00 0.00 0.00 50 1016.2
20260502033003 66 257 5.2 4.3 0.00 0.00 0.00 51 1016.1
20260502032504 66 252 4.3 9.6 0.00 0.00 0.00 51 1015.9
20260502032003 66 253 3.5 4.3 0.00 0.00 0.00 51 1016.0
20260502031503 66 260 3.5 7.0 0.00 0.00 0.00 50 1016.0
20260502031003 67 267 3.5 5.2 0.00 0.00 0.00 50 1015.9
20260502030503 67 249 5.2 6.1 0.00 0.00 0.00 50 1015.9
20260502030004 67 254 6.1 7.0 0.00 0.00 0.00 49 1015.8
20260502025003 68 262 5.2 6.1 0.00 0.00 0.00 48 1015.7
20260502024503 68 270 5.2 8.7 0.00 0.00 0.00 48 1015.7
20260502024003 68 263 4.3 8.7 0.00 0.00 0.00 47 1015.6
20260502023503 68 251 3.5 7.8 0.00 0.00 0.00 48 1015.7
20260502023003 69 251 5.2 3.5 0.00 0.00 0.00 48 1015.6
20260502022503 69 262 6.1 7.0 0.00 0.00 0.00 47 1015.5
20260502022004 69 259 5.2 11.3 0.00 0.00 0.00 46 1015.4
20260502021503 70 254 6.1 7.8 0.00 0.00 0.00 45 1015.4
20260502021003 70 259 5.2 11.3 0.00 0.00 0.00 45 1015.5
20260502020503 71 267 5.2 8.7 0.00 0.00 0.00 44 1015.4
20260502015503 72 275 4.3 7.0 0.00 0.00 0.00 43 1015.3
20260502015004 72 272 4.3 7.0 0.00 0.00 0.00 43 1015.4
20260502014003 73 258 5.2 6.1 0.00 0.00 0.00 42 1015.4
20260502013003 73 300 4.3 12.2 0.00 0.00 0.00 40 1015.1
20260502012503 74 295 5.2 7.0 0.00 0.00 0.00 41 1015.3
20260502012003 74 317 6.1 7.8 0.00 0.00 0.00 40 1015.3
20260502011503 74 260 6.1 13.0 0.00 0.00 0.00 41 1015.4
20260502010503 74 317 6.1 11.3 0.00 0.00 0.00 40 1015.2
20260502005503 74 305 7.8 9.6 0.00 0.00 0.00 41 1015.1
20260502005003 74 321 7.0 12.2 0.00 0.00 0.00 40 1015.1
20260502004504 74 320 7.8 9.6 0.00 0.00 0.00 41 1015.2
20260502004004 74 320 9.6 12.2 0.00 0.00 0.00 41 1015.2
20260502003503 74 314 9.6 11.3 0.00 0.00 0.00 40 1015.2
20260502003003 74 318 7.8 13.0 0.00 0.00 0.00 40 1015.1
20260502002503 74 314 7.8 13.0 0.00 0.00 0.00 40 1015.2
20260502002004 74 318 8.7 10.4 0.00 0.00 0.00 40 1015.2
20260502001504 74 318 9.6 13.0 0.00 0.00 0.00 38 1015.2
20260502001003 74 318 8.7 13.9 0.00 0.00 0.00 38 1015.1
20260502000503 74 317 7.8 15.6 0.00 0.00 0.00 38 1015.1
20260502000004 74 320 8.7 12.2 0.00 0.00 0.00 37 1015.2
20260501235504 74 321 9.6 13.9 0.00 0.00 0.00 37 1015.0
20260501235004 75 319 9.6 13.0 0.00 0.00 0.00 38 1014.9
20260501234503 74 321 10.4 13.9 0.00 0.00 0.00 38 1014.8
20260501234003 75 316 9.6 13.0 0.00 0.00 0.00 37 1014.8
20260501233503 75 316 8.7 14.8 0.00 0.00 0.00 37 1014.8
20260501233004 76 315 7.8 14.8 0.00 0.00 0.00 37 1014.9
20260501232504 76 309 7.8 12.2 0.00 0.00 0.00 39 1015.0
20260501231504 75 308 7.8 13.9 0.00 0.00 0.00 38 1014.9
20260501231003 75 316 8.7 10.4 0.00 0.00 0.00 38 1015.0
20260501230503 75 307 8.7 11.3 0.00 0.00 0.00 38 1015.0
20260501225504 76 322 8.7 13.0 0.00 0.00 0.00 37 1015.1
20260501225004 76 306 9.6 12.2 0.00 0.00 0.00 38 1015.2
20260501224504 76 317 9.6 13.9 0.00 0.00 0.00 38 1015.2
20260501223503 77 316 7.0 10.4 0.00 0.00 0.00 39 1015.4
20260501223003 76 310 7.8 10.4 0.00 0.00 0.00 39 1015.4
20260501222004 76 297 7.8 9.6 0.00 0.00 0.00 39 1015.6
20260501221504 77 313 7.0 14.8 0.00 0.00 0.00 38 1015.6
20260501220503 76 313 7.8 12.2 0.00 0.00 0.00 39 1015.8
20260501220003 76 315 7.8 12.2 0.00 0.00 0.00 40 1015.8
20260501215004 76 315 8.7 12.2 0.00 0.00 0.00 41 1015.9
20260501214003 77 317 7.8 12.2 0.00 0.00 0.00 39 1016.0
20260501213503 77 297 6.1 12.2 0.00 0.00 0.00 39 1016.0
20260501213003 77 308 7.8 14.8 0.00 0.00 0.00 39 1016.2
20260501212503 77 272 9.6 13.9 0.00 0.00 0.00 38 1016.2
20260501212004 77 255 9.6 13.0 0.00 0.00 0.00 38 1016.3
20260501211504 77 272 7.0 16.5 0.00 0.00 0.00 38 1016.2
20260501211002 77 290 7.0 7.8 0.00 0.00 0.00 39 1016.3
20260501210502 77 293 7.0 11.3 0.00 0.00 0.00 40 1016.3
20260501210003 76 265 6.1 13.9 0.00 0.00 0.00 41 1016.4
20260501205503 75 288 6.1 10.4 0.00 0.00 0.00 40 1016.2
20260501205003 74 282 7.0 7.8 0.00 0.00 0.00 42 1016.2
20260501204502 74 322 8.7 13.0 0.00 0.00 0.00 43 1016.2
20260501204003 74 321 8.7 12.2 0.00 0.00 0.00 42 1016.2
20260501203503 74 324 8.7 12.2 0.00 0.00 0.00 43 1016.3
20260501203003 74 321 8.7 11.3 0.00 0.00 0.00 43 1016.3
20260501202503 74 315 8.7 13.0 0.00 0.00 0.00 42 1016.4
20260501202002 74 322 9.6 11.3 0.00 0.00 0.00 42 1016.3
20260501201502 74 319 9.6 15.6 0.00 0.00 0.00 40 1016.3
20260501201003 74 329 7.8 13.0 0.00 0.00 0.00 40 1016.4
20260501200502 74 326 7.8 13.0 0.00 0.00 0.00 40 1016.4
20260501200003 74 316 7.0 14.8 0.00 0.00 0.00 40 1016.6
20260501195502 74 331 7.0 7.8 0.00 0.00 0.00 35 1016.6
20260501195002 74 323 7.8 11.3 0.00 0.00 0.00 40 1016.6
20260501194003 74 320 6.1 11.3 0.00 0.00 0.00 38 1016.7
20260501193002 74 313 7.0 10.4 0.00 0.00 0.00 40 1016.9
20260501192003 73 322 6.1 8.7 0.00 0.00 0.00 37 1017.0
20260501191502 73 306 6.1 9.6 0.00 0.00 0.00 41 1017.1
20260501191003 73 319 6.1 9.6 0.00 0.00 0.00 38 1017.2